JA3VQW-13 Hirakata JP current weather conditions

sailwx.info

Wind from 315

Air temperature 21.7° C
Dewpoint 17.0° C

Last reported at 2015-Jun-30 11:24 UTC.
Time now 2015-Jun-30 12:44 UTC

Location: N 34°48' E 135°40'.
View on Google Maps.

See reports from other nearby stations

  
Tides and Currents Weather Stations Pressure Air Temp Water Temp Dewpoint Dewpoint Depression Visibility Wind Speed Wind Dir Waves Ship Positions
date/time (UTC)wind fromknots sea level pressurealtimeterstation pressurevisibilityair tempwater tempwave heightnotes
2015-Jun-30 11:24 315 21.7
2015-Jun-30 10:54 284 22.2
2015-Jun-30 10:24 315 22.2
2015-Jun-30 09:54 112 22.8
2015-Jun-30 09:24 292 22.8
2015-Jun-30 08:54 292 23.3
2015-Jun-30 08:24 315 23.3
2015-Jun-30 07:54 290 1 gusting 4 24.4
2015-Jun-30 07:24 219 25.6
2015-Jun-30 06:54 225 26.1
2015-Jun-30 06:24 270 26.7
2015-Jun-30 05:54 297 27.2
2015-Jun-30 05:24 315 27.8
2015-Jun-30 04:54 204 28.9
2015-Jun-30 04:24 142 28.9
2015-Jun-30 03:54 267 30.0
2015-Jun-30 03:24 266 0 gusting 2 29.4
2015-Jun-30 02:54 135 29.4
2015-Jun-30 02:24 180 27.8
2015-Jun-30 01:54 292 28.3
2015-Jun-30 01:24 315 26.7
2015-Jun-30 00:54 315 25.0
2015-Jun-30 00:24 270 25.0
2015-Jun-29 23:54 292 24.4
2015-Jun-29 23:24 292 23.3
2015-Jun-29 22:54 292 23.3
2015-Jun-29 22:24 225 22.8
2015-Jun-29 21:54 270 22.2
2015-Jun-29 21:24 248 21.7
2015-Jun-29 20:54 180 21.7
2015-Jun-29 20:31 180 21.1
2015-Jun-29 20:26 180 21.1
2015-Jun-29 20:01 158 21.7
2015-Jun-29 19:31 158 21.7
2015-Jun-29 19:01 158 21.7
2015-Jun-29 18:31 158 21.1
2015-Jun-29 18:11 158 21.7
2015-Jun-29 18:01 158 21.7
2015-Jun-29 17:31 158 21.7
2015-Jun-29 17:01 270 21.7
2015-Jun-29 16:56 287 21.7
2015-Jun-29 16:31 135 21.7
2015-Jun-29 16:01 135 21.7
2015-Jun-29 15:31 135 21.7
2015-Jun-29 15:01 224 22.2
2015-Jun-29 14:31 090 22.8
2015-Jun-29 14:01 270 23.3
2015-Jun-29 13:31 158 23.3
2015-Jun-29 13:01 288 23.9
2015-Jun-29 12:31 135 0 23.3
2015-Jun-29 12:01 180 23.9
2015-Jun-29 11:31 292 25.0
2015-Jun-29 11:01 295 25.6
2015-Jun-29 10:31 090 25.6
2015-Jun-29 10:01 279 27.2
2015-Jun-29 09:31 135 29.4
2015-Jun-29 09:01 270 30.6
2015-Jun-29 08:31 251 1 31.1
2015-Jun-29 08:01 265 0 gusting 1 30.0
2015-Jun-29 07:31 299 4 gusting 4 30.6
2015-Jun-29 07:01 296 0 gusting 4 31.7
2015-Jun-29 06:31 278 0 31.7
2015-Jun-29 06:01 287 5 gusting 5 31.7
2015-Jun-29 05:31 270 31.1
2015-Jun-29 05:01 292 30.0
2015-Jun-29 04:31 292 30.0
2015-Jun-29 04:01 152 30.6
2015-Jun-29 03:31 270 30.6
2015-Jun-29 03:01 270 28.3
2015-Jun-29 02:31 298 26.1
2015-Jun-29 02:01 292 26.1
2015-Jun-29 01:31 270 25.0
2015-Jun-29 01:01 251 24.4
2015-Jun-29 00:31 225 23.9
2015-Jun-29 00:01 270 23.9
2015-Jun-28 23:31 270 23.3
2015-Jun-28 23:17 292 22.8
2015-Jun-28 22:47 292 21.7
2015-Jun-28 22:17 292 20.6
2015-Jun-28 21:47 292 20.6
2015-Jun-28 21:17 300 20.0
2015-Jun-28 20:54 315 19.4
2015-Jun-28 20:24 315 19.4
2015-Jun-28 19:54 315 19.4
2015-Jun-28 19:24 315 19.4
2015-Jun-28 18:54 315 19.4
2015-Jun-28 18:24 315 19.4
2015-Jun-28 17:54 294 19.4
2015-Jun-28 17:24 292 1 gusting 4 19.4
2015-Jun-28 16:54 315 19.4
2015-Jun-28 16:24 292 19.4
2015-Jun-28 15:54 292 19.4
2015-Jun-28 15:24 292 19.4
2015-Jun-28 14:54 292 0 gusting 4 19.4
2015-Jun-28 14:24 297 1 gusting 4 19.4
2015-Jun-28 13:54 307 0 gusting 2 20.0
2015-Jun-28 13:24 303 20.0
2015-Jun-28 12:54 292 0 gusting 2 20.0
2015-Jun-28 12:28 312 20.6